Tracking 30101 objects as of 14-Dec-2024
HD Live streaming from Space Station
objects crossing your sky now

SATCOM 1

Track SATCOM 1 now!
SATCOM 1 is classified as:


NORAD ID: 8476
Int'l Code: 1975-117A
Perigee: 35,912.4 km
Apogee: 36,053.9 km
Inclination: 9.2 °
Period: 1,445.8 minutes
Semi major axis: 42354 km
RCS: 2.5118 m2 (large)
Launch date: December 13, 1975
Source: United States (US)
Launch site: AIR FORCE EASTERN TEST RANGE (AFETR)
Your satellite tracking list
Your tracking list is empty




NASA's NSSDC Master Catalog

Two Line Element Set (TLE):
1  8476U 75117A   24348.53215500  .00000128  00000-0  00000+0 0  9998
2  8476   9.1659 308.6320 0016712 263.4635 106.7737  0.99599972124158
Source of the keplerian elements: AFSPC